This demonstration page uses our WeatherBlox Daily Observations layout. Learn more.

Left ArrowRight Arrow

39.08367, -84.50855

Hourly Observations for December 11, 2020

Temp ( °F °C ) Dew Point ( °F °C ) Humidity (%) Winds ( mph kmh ) Pressure ( in mb ) Visibility ( mi km ) Precip ( " mm )
12:53 am 00:53 Clear 33 0.6 31 -0.6 92 92 Calm 30.01 1016 8 12.87472 0 0
1:53 am 01:53 Clear 31 -0.6 30 -1.1 96 96 Calm 30.01 1016 7 11.26538 0 0
2:50 am 02:50 Clear with Mist and Fog 30 -1 28 -2 93 93 Calm 30.05 1018 1.75 2.816345 0 0
2:53 am 02:53 Clear with Mist and Fog 30 -1.1 29 -1.7 96 96 Calm 30.02 1017 1.5 2.41401 0 0
3:00 am 03:00 Clear with Mist and Fog 31 -0.6 30 -1.1 96 96 Calm 30.05 1018 3 4.82802 0 0
3:37 am 03:37 Clear with Mist and Fog 30 -1.1 29 -1.7 96 96 Calm 30.06 1018 1.75 2.816345 0 0
3:43 am 03:43 Clear with Mist and Fog 31 -0.6 30 -1.1 96 96 Calm 30.06 1018 3 4.82802 0 0
3:53 am 03:53 Clear with Mist and Fog 32 0 30 -1.1 92 92 Calm 30.04 1017 6 9.65604 0 0
4:51 am 04:51 Clear with Mist and Fog 30 -1 28 -2 93 93 Calm 30.07 1018 1.75 2.816345 0 0
4:53 am 04:53 Clear with Mist and Fog 31 -0.6 30 -1.1 96 96 Calm 30.04 1017 1.25 2.011675 0 0
5:02 am 05:02 Clear with Mist and Fog 31 -0.6 30 -1.1 96 96 Calm 30.07 1018 0.75 1.207005 0 0
5:35 am 05:35 Clear with Mist and Fog 30 -1.1 30 -1.1 100 100 Calm 30.08 1019 1.25 2.011675 0 0
5:53 am 05:53 Clear with Mist and Fog 31 -0.6 30 -1.1 96 96 Calm 30.06 1018 1.5 2.41401 0 0
5:57 am 05:57 Clear with Mist and Fog 30 -1.1 30 -1.1 100 100 Calm 30.08 1019 3 4.82802 0 0
6:08 am 06:08 Clear with Mist and Fog 30 -1.1 29 -1.7 96 96 Calm 30.08 1019 2.5 4.02335 0 0
6:15 am 06:15 Clear with Mist and Fog 30 -1.1 29 -1.7 96 96 Calm 30.08 1019 5 8.0467 0 0
6:29 am 06:29 Clear with Mist and Fog 30 -1.1 29 -1.7 96 96 Calm 30.08 1019 1.5 2.41401 0 0
6:38 am 06:38 Clear with Freezing Fog 30 -1.1 29 -1.7 96 96 Calm 30.08 1019 0.5 0.80467 0 0
6:53 am 06:53 Clear 30 -1.1 29 -1.7 96 96 Calm 30.06 1018 10 16.0934 0 0
7:53 am 07:53 Sunny 30 -1.1 29 -1.7 96 96 Calm 30.07 1018 10 16.0934 0 0
8:53 am 08:53 Sunny 31 -0.6 30 -1.1 96 96 W 3 6 30.06 1018 10 16.0934 0 0
9:53 am 09:53 Sunny 45 7.2 40 4.4 83 83 Calm 30.06 1018 10 16.0934 0 0
10:53 am 10:53 Sunny 54 12.2 40 4.4 59 59 S 8 13 30.06 1018 10 16.0934 0 0
11:53 am 11:53 Sunny 60 15.6 40 4.4 47 47 S 8 13 30.03 1017 10 16.0934 0 0
12:53 pm 12:53 Sunny 64 17.8 40 4.4 41 41 WSW 8 13 30.01 1016 10 16.0934 0 0
1:53 pm 13:53 Sunny 64 17.8 38 3.3 38 38 SSW 14 22 29.97 1015 10 16.0934 0 0
2:53 pm 14:53 Sunny 64 17.8 38 3.3 38 38 SSW 10 17 29.96 1015 10 16.0934 0 0
3:53 pm 15:53 Sunny 62 16.7 37 2.8 40 40 S 10 17 29.95 1014 10 16.0934 0 0
4:53 pm 16:53 Sunny 58 14.4 38 3.3 48 48 S 5 7 29.95 1014 10 16.0934 0 0
5:53 pm 17:53 Clear 56 13.3 37 2.8 49 49 Calm 29.96 1015 10 16.0934 0 0
6:53 pm 18:53 Clear 53 11.7 39 3.9 59 59 Calm 29.96 1014 10 16.0934 0 0
7:53 pm 19:53 Clear 53 11.7 39 3.9 59 59 W 5 7 29.96 1014 10 16.0934 0 0
8:53 pm 20:53 Clear 49 9.4 39 3.9 69 69 Calm 29.95 1014 10 16.0934 0 0
9:53 pm 21:53 Clear 47 8.3 39 3.9 74 74 SW 3 6 29.94 1014 10 16.0934 0 0
10:53 pm 22:53 Clear 45 7.2 39 3.9 80 80 Calm 29.94 1014 10 16.0934 0 0
11:53 pm 23:53 Partly Cloudy 45 7.2 39 3.9 80 80 Calm 29.95 1014 10 16.0934 0 0

Powered by AerisWeather